Regional Weather Roundup
Issued by NWS Green Bay, WI

Home | Current Version | Previous Version | Text Only | Print | Product List | Glossary On
Versions: 1 2 3 4 5 6 7 8 9 10 11 12 13 14 15 16 17 18 19 20 21 22 23 24 25 26 27 28 29 30 31 32 33 34 35 36 37 38 39 40 41 42 43 44 45 46 47 48 49 50
000
ASUS43 KGRB 231610
RWRGRB

NORTH-CENTRAL AND NORTHEAST WISCONSIN REGIONAL WEATHER ROUNDUP
NATIONAL WEATHER SERVICE GREEN BAY WI
1100 AM CDT WED APR 23 2014

WIZ005-009-010>012-018-019-231700-
NORTH CENTRAL WISCONSIN

CITY           SKY/WX    TMP DP  RH WIND       PRES   REMARKS
IRONWOOD       MOSUNNY   48  25  40 SE8       30.09F
MANITOWISH WTR PTSUNNY   45  23  41 E7        30.13R
ARBOR VITAE    PTSUNNY   49  27  41 E5        30.13S
EAGLE RIVER    MOSUNNY   46  19  34 E8        30.12F
LAND O LAKES   MOSUNNY   46  23  40 SE6       30.13F
RHINELANDER    PTSUNNY   45  24  43 E9        30.14R
PHILLIPS       CLOUDY    44  25  46 SE8       30.13F
ANTIGO         PTSUNNY   42  23  47 S6        30.16R
TOMAHAWK       CLOUDY    45  23  42 CALM      30.14S
MERRILL        CLOUDY    45  25  45 S3        30.15S
$$

WIZ013-073-231700-
NORTHEAST WISCONSIN

CITY           SKY/WX    TMP DP  RH WIND       PRES   REMARKS
IRON MOUNTAIN  SUNNY     44  19  36 CALM      30.15F
MARINETTE      SUNNY     43  21  42 SE10      30.20R
OCONTO         MOSUNNY   42  22  46 E7        30.19R
$$

WIZ017-030-035>037-045-231700-
CENTRAL WISCONSIN

CITY           SKY/WX    TMP DP  RH WIND       PRES   REMARKS
MEDFORD        PTSUNNY   43  25  48 E10       30.14S
WAUSAU         PTSUNNY   45  24  43 E7        30.14S
MOSINEE        SUNNY     43  27  52 SE8       30.16F
MARSHFIELD     PTSUNNY   46  27  47 SE9       30.14F
WISC RAPIDS    MOSUNNY   47  21  35 E8        30.17F
STEVENS POINT  MOSUNNY   43  22  44 SE7       30.16F
WAUPACA        MOSUNNY   46  25  42 SE5       30.19S
SHAWANO        PTSUNNY   45  26  46 NE6       30.19R
CLINTONVILLE   PTSUNNY   45  25  45 E5        30.19R
$$

WIZ038-039-048-051-231700-
FOX VALLEY

CITY           SKY/WX    TMP DP  RH WIND       PRES   REMARKS
NWS GREEN BAY  PTSUNNY   43  24  47 E10G20    30.19S
APPLETON       PTSUNNY   43  23  45 NE7       30.19R
OSHKOSH        MOSUNNY   44  26  49 NE6       30.19R
FOND DU LAC    MOSUNNY   45  26  47 NE6       30.17F
$$

WIZ022-050-052-231700-
EAST CENTRAL WISCONSIN

CITY           SKY/WX    TMP DP  RH WIND       PRES   REMARKS
STURGEON BAY   SUNNY     43  25  49 NW7       30.19S
MANITOWOC      MOSUNNY   44  24  45 VRB6      30.19S
SHEBOYGAN      MOSUNNY   43  24  47 E7        30.19R
$$

LMZ563-521-522-541>543-231700-
LAKESHORE

STATION/POSITION TIME  TEMP    WIND        PRES    VSBY  WAVE
                       AIR SEA DIR/SP/G                  HT/PER
                 (UTC) (F)     (DEG/KT/KT) (MB)    (MI)  (FT/S)
SHEBOYGAN LKSHOR 1600   36      30/  9/ 10 1023.3R
KEWAUNEE LKSHORE 1600   40      50/  6/  9 1022.9R
TWO RIVERS CG    1500   42                   N/A       6   1
NORTHPORT PIER   1600   34     310/  7/  9 1022.4S
SISTER BAY LKSHO 1500   38     350/ 11/ 12   N/A
STURGEON BAY CG  1500   40      70/  9     1022.6   3 1/2  1
MENOMINEE LKSHOR 1600   36      80/  7/  9 1022.9S
$$



USA.gov is the U.S. government's official web portal to all federal, state and local government web resources and services.